Regional Weather Roundup
Issued by NWS Glasgow, MT

Home | Current Version | Previous Version | Text Only | Print | Product List | Glossary On
Versions: 1 2 3 4 5 6 7 8 9 10 11 12 13 14 15 16 17 18 19 20 21 22 23 24 25 26 27 28 29 30 31 32 33 34 35 36 37 38 39 40 41 42 43 44 45 46 47 48 49 50
602
ASUS45 KGGW 211615
RWRGGW
HOURLY REGIONAL WEATHER ROUNDUP FOR NORTHEAST MONTANA
NATIONAL WEATHER SERVICE GLASGOW MONTANA
1000 AM MDT SAT OCT 21 2017

NOTE: "FAIR" INDICATES FEW OR NO CLOUDS BELOW 12,000 FEET WITH NO
SIGNIFICANT WEATHER AND/OR OBSTRUCTIONS TO VISISBILITY.

NORTHEAST MONTANA


CITY           SKY/WX    TMP DP  RH WIND       PRES   REMARKS
GLASGOW        CLOUDY    46  38  73 W23G33    29.69R
WOLF POINT     CLOUDY    47  38  71 W23G33    29.66R
JORDAN           N/A     49  28  44 W25G33    29.75R
SIDNEY         CLOUDY    47  38  71 W26G33    29.62R
GLENDIVE       CLOUDY    46  36  68 W33G44    29.67R
SCOBEY           N/A     42  33  70 W25G31    29.60R

FORT PECK REPORTS


CITY           SKY/WX    TMP DP  RH WIND       PRES   REMARKS
FORT PECK        N/A     46  40  79 W26G36      N/A
THE PINES        N/A     44  35  70 W12G24      N/A

SOUTHEAST MONTANA


CITY           SKY/WX    TMP DP  RH WIND       PRES   REMARKS
BILLINGS       MOSUNNY   49  21  33 W20G30    29.89R
MILES CITY     CLOUDY    49  30  48 W24G32    29.77R
BAKER          CLOUDY    46  32  58 W31G40    29.74R
LIVINGSTON     CLOUDY    41  23  48 W17       29.95R

CENTRAL MONTANA


CITY           SKY/WX    TMP DP  RH WIND       PRES   REMARKS
HAVRE          SUNNY     43  33  68 W20G25    29.78R
LEWISTOWN      SUNNY     43  22  43 W22       29.84R
GREAT FALLS    SUNNY     43  25  49 SW18G25   29.86R
CUT BANK       SUNNY     43  25  49 W25G32    29.81R
HELENA         MOSUNNY   42  27  55 W15G22    29.95S
BUTTE          CLOUDY    32  22  66 SE6       30.00R
BOZEMAN        CLOUDY    41  25  53 W7        29.99R

WESTERN MONTANA


CITY           SKY/WX    TMP DP  RH WIND       PRES   REMARKS
MISSOULA       PTSUNNY   40  32  73 CALM      30.02R
KALISPELL      NOT AVBL

NORTH DAKOTA


CITY           SKY/WX    TMP DP  RH WIND       PRES   REMARKS
WILLISTON      CLOUDY    46  38  73 W18G26    29.57
DICKINSON      CLOUDY    46  35  65 W33G46    29.60R
MINOT          CLOUDY    50  39  66 SW23G31   29.49R
BISMARCK       CLOUDY    49  42  77 NW13      29.57S

SOUTHERN SASKATCHEWAN


CITY           SKY/WX    TMP DP  RH WIND       PRES   REMARKS
REGINA         CLOUDY    45  39  81 W22G30    29.45R
ESTEVAN        CLOUDY    48  39  71 W18G26    29.45F
SWIFT CURRENT  LGT RAIN  39  37  93 W20G26    29.61R





USA.gov is the U.S. government's official web portal to all federal, state and local government web resources and services.